Simultaneous Nadir Overpasses (SNOs) Predictions

Prediction of SNOs between GOES-17 and NOAA-19 Satellite Orbit:

Table of predicted SNOs for the next 14.0 days since TLE Epoch: 12/10/2022
Index Date Time (GOES-17) GOES-17 Lat,Lon NOAA-19 Lat,Lon Distance(km) Time Diff (sec)
1 12/10/2022 05:18:21 -0.01,-137.32 0.23,-136.33 112.67 80
2 12/11/2022 05:06:25 -0.02,-137.31 0.87,-133.42 444.04 80
3 12/12/2022 17:35:56 0.03,-137.32 0.91,-141.13 435.52 80
4 12/13/2022 17:24:02 0.04,-137.31 0.22,-138.23 104.64 80
5 12/14/2022 17:14:46 0.04,-137.31 -0.41,-135.32 226.20 80
6 12/17/2022 05:35:18 -0.04,-137.27 -0.73,-140.19 333.57 80
7 12/18/2022 05:23:24 -0.04,-137.26 -0.02,-137.29 4.32 80
8 12/19/2022 05:08:48 -0.04,-137.25 0.63,-134.38 327.00 80
9 12/21/2022 17:29:06 0.04,-137.21 0.48,-139.20 226.06 80
10 12/22/2022 17:19:51 0.05,-137.19 -0.17,-136.29 103.14 80
11 12/23/2022 17:07:55 0.05,-137.17 -0.81,-133.38 432.13 80
